Hovedside
METAR-TAF:

METAR-TAF

Lufthavner :

Mount Shasta, California, USA

breddegrad: 41-18-57N, lengdegrad: 122-18-58W, høyde over havet: 1077 m

Gjeldene værobservasjon

Denne rapporten ble laget for 48 minutter siden, klokken 02:56 UTC
Flau vind
Temperatur 15°C
Luftfuktighet 39%
Trykk 1015 hPa
Sikt: 16.1 km
Skyfri himmel

METAR: KMHS 090256Z AUTO 00000KT 10SM CLR 15/01 A2998 RMK AO2 SLP160 T01500011 53000

Tid: 20:44 (03:44 UTC)


TAF: fraværende

Værobservasjoner og værvarsel for over 4000 flyplasser (METAR- og TAF-rapporter).

Tilgjengelige stasjoner er representert av de røde og gule prikkene på kartet.

Hold musepekeren over prikken for å se navnet på stasjonen.

Klikk så for å se værobservasjoner og -varsler.

For å forandre kartet kan du klikke på den grønne knappen med svart kryss for å zoome inn, på den grønne knappen med strek for å zoome ut, eller på de grønne pilene for å se tilstøtende kart.


METAR-TAF: